カタログに戻る

STARLINK-31029

運用中通信VLEO
NORAD 58712·PAYLOAD·🇺🇸 United States

打ち上げ Jan 3, 2024 から Vandenberg Space Force Base

Loading…

次のパス (今後24時間)

TLE

最新Source: CelesTrak SupGP

元期: Sep 14, 2026, 21:59 UTC

1 58712C 24002H   26257.91645833  .00052798  00000+0  15598-2 0  2579
2 58712  53.1591  69.5215 0001198  76.5778  69.5921 15.34367438    13

AllMySatでSTARLINK-31029をリアルタイム追跡

Download on the App Store